sat.trackr.live / text

‹ back to catalog

STARLINK-4174

NORAD 53276 · 2022-086AL

PAYLOAD ACTIVE UNKNOWN

§ Identity

Operator
Country
US
Launch date
2022-07-24
Launch site
AFETR
Launch vehicle
Mass (kg)
RCS (m²)

Purposes: comms

External: N2YO · Heavens-Above · Gunter

§ Orbital elements

Epoch: 2026-09-19T21:56:28.048992Z

Period
93.85 min
Inclination
53.1601°
Eccentricity
0.0001132
Mean motion
15.34398109 rev/d
Perigee alt
461.9 km
Apogee alt
463.5 km
Semi-major
6,840.8 km
B*
-1.0089e-4
RAAN
16.1140°
Arg perigee
75.2828°
Mean anomaly
284.8299°
Rev number
23,073

§ Raw data

STARLINK-41741 53276U 22086AL  26262.91421353 -.00003783  00000+0 -10089-3 0  99902 53276  53.1601  16.1140 0001132  75.2828 284.8299 15.34398109230733

JSON: /api/v1/satellites/53276 · /tle

For live sub-satellite position, see the globe view (requires WebGL).

§ Visibility from observer

Set your observer location to see the next 7 days of passes ≥ 10°. The values pass through the URL so the page stays shareable.

No JS? Fill the form by hand. The geolocation button needs JavaScript.